Location: Benevento
(41.1330°N, 14.7500°E)
Time: 13:08:06
(UTC+02:00)

ISS - Visible Passes

Search period start: 11 May 2021 00:00
Search period end: 21 May 2021 00:00
Orbit: 417 x 422 km, 51.6° (Epoch: 11 May)

Date Brightness Start Highest point End Pass type
(mag) Time Alt. Az. Time Alt. Az. Time Alt. Az.
11 May -0.8 02:04:21 15° N 02:04:21 15° N 02:06:21 10° NNE visible
11 May -0.7 03:39:53 10° NNW 03:42:04 16° N 03:44:14 10° NE visible
11 May -2.5 05:16:15 10° NW 05:19:31 45° NNE 05:22:47 10° ESE visible
12 May -0.5 01:18:17 13° NNE 01:18:17 13° NNE 01:18:58 10° NNE visible
12 May -0.6 02:52:26 10° NNW 02:54:23 14° N 02:56:20 10° NE visible
12 May -1.7 04:28:56 10° NW 04:32:00 31° NNE 04:35:03 10° E visible
13 May -0.5 02:05:02 11° NNW 02:06:41 14° N 02:08:32 10° NE visible
13 May -1.2 03:41:38 10° NW 03:44:25 23° NNE 03:47:12 10° ENE visible
14 May -0.6 01:18:39 14° NNW 01:18:59 14° N 01:20:53 10° NNE visible
14 May -0.9 02:54:19 10° NNW 02:56:48 19° NNE 02:59:16 10° ENE visible
14 May -3.5 04:30:41 10° NW 04:34:04 73° NE 04:37:26 10° ESE visible
14 May -2.7 21:14:21 10° S 21:17:08 24° SE 21:19:56 10° ENE visible
14 May -2.5 22:50:36 10° WSW 22:53:49 41° NNW 22:55:36 22° NNE visible
15 May -0.6 00:29:12 10° NW 00:31:18 15° N 00:33:25 10° NNE visible
15 May -0.6 02:06:57 10° NNW 02:09:08 16° N 02:11:19 10° NE visible
15 May -2.6 03:43:19 10° NW 03:46:35 45° NNE 03:49:51 10° ESE visible
15 May -3.4 22:02:59 10° WSW 22:06:19 65° NNW 22:09:41 10° NE visible
15 May -0.8 23:41:14 10° WNW 23:43:38 18° NNW 23:46:02 10° NNE visible
16 May -0.5 01:19:31 10° NNW 01:21:27 14° N 01:23:24 10° NE visible
16 May -1.8 02:55:59 10° NW 02:59:04 31° NNE 03:02:07 10° E visible
16 May -3.2 04:32:45 10° WNW 04:35:54 37° SW 04:39:02 10° SSE visible
16 May -3.9 21:15:33 10° SW 21:18:53 75° SE 21:22:15 10° ENE visible
16 May -1.1 22:53:19 10° WNW 22:56:00 22° NNW 22:58:42 10° NNE visible
17 May -0.5 00:31:55 10° NNW 00:33:45 14° N 00:35:36 10° NE visible
17 May -1.3 02:08:42 10° NW 02:11:29 23° NNE 02:14:16 10° ENE visible
17 May -3.9 03:45:11 10° WNW 03:48:33 65° SW 03:51:53 10° SE visible
17 May -1.6 22:05:26 10° W 22:08:25 28° NNW 22:11:24 10° NE visible
17 May -0.5 23:44:09 10° NW 23:46:03 14° N 23:47:56 10° NNE visible
18 May -0.8 01:21:23 10° NNW 01:22:58 17° N 01:22:58 17° N visible
18 May -2.3 21:17:40 10° WSW 21:20:52 41° NNW 21:24:05 10° NE visible
18 May -0.6 22:56:16 10° NW 22:58:22 15° N 23:00:27 10° NNE visible
19 May -0.8 00:34:01 10° NNW 00:36:12 16° N 00:36:33 16° NNE visible
19 May -0.8 22:08:18 10° WNW 22:10:42 18° NNW 22:13:05 10° NNE visible
19 May -0.6 23:46:34 10° NNW 23:48:31 14° N 23:50:24 10° NE visible
20 May -0.6 01:23:03 10° NW 01:23:19 12° NW 01:23:19 12° NW visible
20 May -1.1 21:20:22 10° WNW 21:23:04 22° NNW 21:25:45 10° NNE visible
20 May -0.6 22:58:59 10° NNW 23:00:48 14° N 23:02:39 10° NE visible
